ATLAS 5 CENTAUR DEB, 44659

Orbit data source: Space-Track

ATLAS 5 CENTAUR DEB, 44659 is space debris in HEO originally from a launch on Wed, 17 Oct 2018 UTC launched from the Air Force Eastern Test Range (AFETR). Debris objects in space refer to the collection of defunct objects orbiting the Earth. Examples of debris include non-operational satellites, rocket bodies, and fragments generated from explosions, collisions, or faulty payload assembly.

Loading next visibility...
Identifier
44659, 2018-079V
Orbit
HEO
Country
Flag of USUS
Related business
Flag of USUnited Launch Alliance/Lockheed Martin (US)
Manufacturer
ULA Decatur
Mission
Spacecraft
Bus & Motor
Unknown
Mass
Unknown
Launch date (UTC)
2018-10-17 (7 years ago)
Launch vehicle
Unknown
Launch site
Air Force Eastern Test Range (AFETR)
Object type
Payload
Rocket body
Debris
Shape & HBR
Unknown shape, 1.1 m
Radar Cross Section
RCS unknown

Expand to show TLE details & history
Last TLE update: 2 days ago

TLE from 2 days ago
0 ATLAS 5 CENTAUR DEB
1 44659U 18079V   26022.42019632 -.00000089  00000-0  00000-0 0  9990
2 44659  13.3234  31.5800 4539630 323.4983  12.6396  1.90585699 46587
Epoch: 2026-01-22T10:05Z
TLE epoch observation values (Epoch: 2026-01-22T10:05:04.962Z)
Latitude
0.00005°
Longitude
118.57176°
Altitude
9,619.474 km
Speed
5.944 km/s
True Right ascension
02h 06m 27s
True Declination
0° 00' 00"
Sunlit
Object was in daylight at epoch
Visualization orbit readout
Latitude
Unknown
Longitude
Unknown
Altitude
Unknown
Speed
Unknown
Apparent Right ascension
Unknown
Apparent Declination
Unknown
Sunlit
N/A
Visualization observer readout
Local Sidereal Time
03:44:15
Azimuth
Unknown
Elevation
Unknown
Doppler factor
Unknown
Orbital elements
Apogee altitude
33,579.047 km
Perigee altitude
8,627.816 km
Semi-major axis
27,481.569 km
Eccentricity
0.45396
Inclination
13.3234°
RAAN
31.58°
Arg. of periapsis
323.4983°
True anomaly
36.21153°
Mean anomaly
12.6396°
Eccentric anomaly
22.66056°
Mean motion
0.47641 °/min
Orbital period
755.65 mins
BSTAR
0
Loading maneuver chart data...
Computing Atmospheric mass density...

Documentation

Showing up to 5 results
|